FW5469 Weather Reports


Display with metric or nautical units.
time (UTC)temp
F
wind
direction
speed
MPH
gust
MPH
rain 1hr
in
rain 24hr
in
rain mn
in
humidity
%
barometer
mb
20260509130126 55 141 1.0 6.0 0.00 0.17 0.00 89 1005.5
20260509124556 55 156 1.0 6.0 0.00 0.17 0.00 89 1005.6
20260509123120 55 233 2.0 7.0 0.00 0.17 0.00 89 1005.7
20260509121554 54 162 2.0 4.0 0.00 0.17 0.00 89 1005.8
20260509120056 54 226 1.0 6.0 0.00 0.17 0.00 90 1005.9
20260509114626 54 236 2.0 5.0 0.00 0.17 0.00 90 1005.8
20260509113124 54 0 1.0 5.0 0.00 0.17 0.00 90 1005.8
20260509111556 53 0 1.0 4.0 0.00 0.17 0.00 90 1005.8
20260509110101 53 203 2.0 8.0 0.00 0.17 0.00 90 1005.7
20260509104555 53 207 2.0 4.0 0.00 0.17 0.00 91 1005.6
20260509103108 53 241 1.0 4.0 0.00 0.17 0.00 91 1005.6
20260509101603 53 210 1.0 5.0 0.00 0.17 0.00 91 1005.6
20260509100054 53 153 0.0 4.0 0.00 0.17 0.00 91 1005.6
20260509094602 53 0 0.0 3.0 0.00 0.17 0.00 91 1005.6
20260509093104 53 254 2.0 9.0 0.00 0.17 0.00 91 1005.7
20260509091557 53 226 1.0 3.0 0.00 0.17 0.00 91 1005.7
20260509084619 52 163 1.0 6.0 0.00 0.17 0.00 91 1006.0
20260509083056 52 240 0.0 4.0 0.00 0.17 0.00 91 1006.2
20260509081559 52 226 1.0 5.0 0.00 0.17 0.00 91 1006.3
20260509080059 52 225 0.0 2.0 0.00 0.17 0.00 91 1006.2
20260509074558 52 0 1.0 3.0 0.00 0.17 0.00 91 1006.2
20260509073055 52 228 1.0 4.0 0.00 0.17 0.00 91 1006.3
20260509071555 52 213 0.0 3.0 0.00 0.17 0.00 91 1006.3
20260509070056 52 0 1.0 4.0 0.00 0.17 0.00 91 1006.5
20260509064600 52 234 1.0 5.0 0.00 0.17 0.00 91 1006.6
20260509063056 52 240 1.0 6.0 0.00 0.17 0.00 91 1006.7
20260509061607 52 226 2.0 7.0 0.00 0.17 0.00 91 1006.9
20260509060058 52 219 1.0 6.0 0.00 0.17 0.00 90 1007.1
20260509054611 52 201 2.0 8.0 0.00 0.17 0.00 90 1007.2
20260509053105 52 157 2.0 6.0 0.00 0.17 0.00 90 1007.4
20260509051608 52 243 1.0 4.0 0.00 0.17 0.00 90 1007.3
20260509050100 52 219 2.0 7.0 0.00 0.17 0.00 90 1007.5
20260509044612 52 0 1.0 4.0 0.00 0.17 0.00 90 1007.7
20260509043057 52 0 0.0 2.0 0.00 0.17 0.00 90 1007.7
20260509041559 52 224 1.0 2.0 0.00 0.17 0.00 90 1007.8
20260509040056 52 226 0.0 2.0 0.00 0.17 0.00 90 1008.1
20260509034558 52 0 0.0 4.0 0.01 0.17 0.17 90 1008.4
20260509033056 52 226 2.0 7.0 0.01 0.17 0.17 89 1008.3
20260509031608 52 228 2.0 8.0 0.01 0.17 0.17 89 1008.5
20260509030104 52 167 3.0 8.0 0.01 0.17 0.17 89 1008.7
20260509024557 52 226 2.0 6.0 0.00 0.16 0.16 90 1008.7
20260509023106 51 243 2.0 4.0 0.00 0.16 0.16 90 1008.7
20260509021557 52 240 1.0 2.0 0.00 0.16 0.16 90 1008.7
20260509020058 52 0 1.0 6.0 0.00 0.16 0.16 90 1008.7
20260509014557 51 201 1.0 4.0 0.00 0.16 0.16 90 1008.7
20260509013057 51 227 0.0 6.0 0.01 0.16 0.16 90 1008.7
20260509011601 51 238 2.0 4.0 0.02 0.16 0.16 90 1008.5
20260509004608 51 260 1.0 4.0 0.04 0.16 0.16 90 1008.7
20260509003102 51 225 1.0 6.0 0.04 0.15 0.15 90 1008.5
20260509001557 51 238 2.0 8.0 0.05 0.14 0.14 91 1008.3
20260509000056 51 187 1.0 5.0 0.06 0.13 0.13 91 1008.7
20260508234558 51 243 0.0 2.0 0.06 0.12 0.12 91 1008.6
20260508233057 51 157 0.0 2.0 0.05 0.11 0.11 90 1008.7
20260508231600 51 219 0.0 2.0 0.05 0.09 0.09 90 1008.6
20260508230128 51 244 0.0 1.0 0.05 0.07 0.07 89 1008.6
20260508224604 52 0 0.0 0.0 0.06 0.06 0.06 89 1008.9
20260508223059 51 0 0.0 2.0 0.06 0.06 0.06 88 1008.6
20260508221557 52 0 0.0 1.0 0.04 0.04 0.04 88 1008.9
20260508220125 52 0 0.0 2.0 0.02 0.02 0.02 86 1009.0
20260508214601 53 0 0.0 5.0 0.00 0.00 0.00 83 1008.3
20260508213100 53 238 1.0 8.0 0.00 0.00 0.00 82 1008.5
20260508211554 54 226 1.0 4.0 0.00 0.00 0.00 81 1008.7
20260508210058 54 220 1.0 7.0 0.00 0.00 0.00 82 1008.7
20260508204605 54 170 2.0 7.0 0.00 0.00 0.00 80 1009.1
20260508203054 55 165 1.0 10.0 0.00 0.00 0.00 80 1009.2
20260508201557 56 193 1.0 11.0 0.00 0.00 0.00 75 1009.5
20260508194601 58 212 4.0 10.0 0.00 0.00 0.00 71 1009.5
20260508193107 59 314 2.0 7.0 0.00 0.00 0.00 70 1009.5
20260508191555 59 226 3.0 9.0 0.00 0.00 0.00 68 1009.5
20260508190109 60 229 2.0 10.0 0.00 0.00 0.00 67 1009.6
20260508184558 60 250 2.0 12.0 0.00 0.00 0.00 69 1009.7
20260508183059 60 230 3.0 11.0 0.00 0.00 0.00 68 1009.9
20260508181611 60 167 1.0 11.0 0.00 0.00 0.00 69 1009.9
20260508180108 59 285 2.0 11.0 0.00 0.00 0.00 71 1010.3
20260508174622 59 219 1.0 7.0 0.00 0.00 0.00 70 1010.4
20260508173100 58 285 2.0 7.0 0.00 0.00 0.00 68 1010.6
20260508171600 58 244 3.0 8.0 0.00 0.00 0.00 67 1010.6
20260508164557 59 252 2.0 7.0 0.00 0.00 0.00 66 1010.8
20260508163054 60 330 2.0 9.0 0.00 0.00 0.00 67 1010.8
20260508161556 59 232 1.0 13.0 0.00 0.00 0.00 68 1010.8
20260508160055 60 262 2.0 6.0 0.00 0.00 0.00 66 1011.0
20260508154556 58 236 1.0 6.0 0.00 0.00 0.00 68 1010.9
20260508153102 59 314 1.0 11.0 0.00 0.00 0.00 68 1010.8
20260508151555 56 302 2.0 8.0 0.00 0.00 0.00 68 1011.0
20260508150057 56 334 2.0 8.0 0.00 0.00 0.00 70 1011.1
20260508144600 56 0 1.0 8.0 0.00 0.00 0.00 69 1011.0
20260508143059 55 296 1.0 7.0 0.00 0.00 0.00 70 1011.0
20260508141600 55 326 0.0 3.0 0.00 0.00 0.00 70 1011.0
20260508140056 54 0 1.0 7.0 0.00 0.00 0.00 71 1011.2
20260508134618 53 240 3.0 8.0 0.00 0.00 0.00 71 1011.4
20260508133059 53 222 1.0 6.0 0.00 0.00 0.00 71 1011.3
20260508131555 51 0 0.0 2.0 0.00 0.00 0.00 76 1011.4